Regional Weather Roundup
Issued by NWS

Home | Current Version | Previous Version | Text Only | Print | Product List | Glossary On
Versions: 1 2 3 4 5 6 7 8 9 10 11 12 13 14 15 16 17 18 19 20 21 22 23 24 25 26 27 28 29 30 31 32 33 34 35 36 37 38 39 40 41 42 43 44 45 46 47 48 49 50
000
ASUS43 KDMX 021807
RWRIA

WEATHER ROUNDUP FOR IOWA
NATIONAL WEATHER SERVICE DES MOINES IA
100 PM CDT SUN AUG 02 2015

NOTE: "FAIR" INDICATES FEW OR NO CLOUDS BELOW 12,000 FEET WITH NO
SIGNIFICANT WEATHER AND/OR OBSTRUCTIONS TO VISIBILITY.

* - THESE STATIONS ARE NOT NWS STATIONS...THUS NOT UNDER NWS
QUALITY CONTROL.  THEY ALSO DO NOT REPORT WEATHER SUCH
AS PRECIPITATION OR FOG.

IAZ001>003-012>014-020>022-031>034-043>046-021900-
   NORTHWEST IOWA

CITY           SKY/WX    TMP DP  RH WIND       PRES   REMARKS
CARROLL *      SUNNY     86  75  70 SW9G17    29.79F HX  95
CHEROKEE *     SUNNY     84  74  70 W9        29.80R HX  91
DENISON *      SUNNY     84  75  74 SW12      29.79F HX  92
LE MARS *      SUNNY     84  72  65 W8        29.82R HX  89
ORANGE CITY *  SUNNY     82  70  65 NW10      29.82S HX  86
SHELDON *      SUNNY     82  70  65 NW10      29.80S HX  86
SPENCER        SUNNY     87  67  51 W15       29.79R HX  90
6HR MIN TEMP:  70; 6HR MAX TEMP:  88;

STORM LAKE *   SUNNY     84  73  70 SW10      29.80F HX  91
$$

IAZ055>058-069>071-079>083-090>094-021900-
   SOUTHWEST IOWA

CITY           SKY/WX    TMP DP  RH WIND       PRES   REMARKS
ATLANTIC *     SUNNY     88  77  70 SW12G21   29.83S HX 100
AUDUBON *      SUNNY     88  75  66 SW9       29.83F HX  97
CLARINDA *     SUNNY     88  77  70 SW14      29.87S HX 100
COUNCIL BLFS * SUNNY     90  73  58 SW15G22   29.83F HX  98
CRESTON *      SUNNY     86  75  70 W13G25    29.86F HX  95
HARLAN  *      SUNNY     86  81  84 SW13      29.85F HX 102
LAMONI         SUNNY     87  74  64 SW17      29.85F HX  95
6HR MIN TEMP:  71; 6HR MAX TEMP:  87;

RED OAK *      SUNNY     88  77  70 SW15      29.84F HX 100
SHENANDOAH *   SUNNY     88  77  70 SW10G21   29.85F HX 100
$$

IAZ047>049-059>061-072>074-084-021900-
   CENTRAL IOWA

CITY           SKY/WX    TMP DP  RH WIND       PRES   REMARKS
AMES           SUNNY     86  74  67 W15       29.78F HX  94
6HR MIN TEMP:  69; 6HR MAX TEMP:  86; 6HR PCP: TRACE;

ANKENY *       SUNNY     90  75  62 W12G20    29.78F HX 100
CHARITON *     SUNNY     88  73  62 SW14G21   29.83F HX  96
DES MOINES     MOSUNNY   91  72  53 W21G29    29.79F HX  98
6HR MIN TEMP:  73; 6HR MAX TEMP:  91; 6HR PCP: TRACE;

GRINNELL*      SUNNY     86  75  70 SW15      29.79F HX  95
KNOXVILLE *    SUNNY     88  73  62 SW13G23   29.80F HX  96
MARSHALLTOWN   SUNNY     86  74  67 W16G23    29.76F HX  94
6HR MIN TEMP:  70; 6HR MAX TEMP:  86; 6HR PCP: TRACE;

PELLA *        SUNNY     89  76  67 W10G18    29.81F HX 100
PERRY *          N/A     88  75  66 W13       29.79F HX  97
$$

IAZ004>006-015-016-023>025-035-036-021900-
   NORTH CENTRAL IOWA

CITY           SKY/WX    TMP DP  RH WIND       PRES   REMARKS
ALGONA *       SUNNY     86  73  66 W10G18    29.77S HX  93
CLARION *      SUNNY     84  75  74 SW14      29.76F HX  92
ESTHERVILLE    MOSUNNY   84  66  54 NW14      29.77S HX  86
6HR MIN TEMP:  69; 6HR MAX TEMP:  84;

FORT DODGE *   SUNNY     86  73  66 SW14      29.78F HX  93
MASON CITY     SUNNY     87  73  62 W16       29.74F HX  94
6HR MIN TEMP:  70; 6HR MAX TEMP:  87;

FOREST CITY *  SUNNY     84  70  61 SW10      29.74S HX  88
IOWA FALLS *     N/A     85  73  66 SW15G21   29.77F HX  92
$$

IAZ007>011-017>019-026>030-037>042-050>054-066-021900-
   NORTHEAST IOWA

CITY           SKY/WX    TMP DP  RH WIND       PRES   REMARKS
CEDAR RAPIDS   SUNNY     85  75  72 SW13      29.77F HX  93
6HR MIN TEMP:  68; 6HR MAX TEMP:  85; 6HR PCP:  0.01;

CHARLES CITY * SUNNY     86  75  70 SW13G18   29.72F HX  95
CLINTON *      MOSUNNY   84  72  65 SW17      29.82F HX  89
DECORAH *      SUNNY     86  72  62 SW13G21   29.68F HX  92
DUBUQUE        SUNNY     85  69  58 SW20G26   29.75F HX  89
6HR MIN TEMP:  70; 6HR MAX TEMP:  85;

MONTICELLO *   SUNNY     86  73  66 SW14G21   29.76F HX  93
OELWEIN *      SUNNY     84  72  65 SW15      29.74F HX  89
WATERLOO       SUNNY     86  73  65 SW18G25   29.72F HX  93
6HR MIN TEMP:  72; 6HR MAX TEMP:  87;

$$

IAZ064-065-067-068-078-021900-
   EAST CENTRAL IOWA

CITY           SKY/WX    TMP DP  RH WIND       PRES   REMARKS
DAVENPORT      MOSUNNY   85  71  63 SW12G18   29.81F HX  90
6HR MIN TEMP:  70; 6HR MAX TEMP:  85;

IOWA CITY      SUNNY     88  73  61 SW13G21   29.80F HX  95
6HR MIN TEMP:  69; 6HR MAX TEMP:  88;

MT. PLEASANT * SUNNY     89  70  54 SW13      29.83F HX  94
MUSCATINE *    SUNNY     90  72  55 SW13G20   29.80F HX  96
QUAD CITIES    MOSUNNY   89  70  53 SW18G24   29.80F HX  94
6HR MIN TEMP:  71; 6HR MAX TEMP:  89; 6HR PCP: TRACE;

$$

IAZ062-063-075>077-085>089-095>099-021900-
   SOUTHEAST IOWA

CITY           SKY/WX    TMP DP  RH WIND       PRES   REMARKS
FAIRFIELD *    MOSUNNY   86  73  66 SW10      29.83F HX  93
FORT MADISON * SUNNY     84  73  70 SW13G18   29.86F HX  91
KEOKUK *       SUNNY     88  73  62 SW15      29.85F HX  96
OSKALOOSA *    PTSUNNY   84  73  69 SW10G16   29.82F HX  91
CENTERVILLE *  SUNNY     86  75  70 SW10G18   29.86F HX  95
OTTUMWA        MOSUNNY   85  76  74 SW12      29.81F HX  94
6HR MIN TEMP:  67; 6HR MAX TEMP:  86; 6HR PCP:  0.01;

WASHINGTON *   MOSUNNY   86  73  66 SW13      29.83F HX  93
$$

ABBREVIATIONS USED IN REMARKS
   TC - TEMPERATURES IN CELSIUS
  WCI - WIND CHILL INDEX
   HX - HEAT INDEX
  VSB - VISIBILITY
$$




USA.gov is the U.S. government's official web portal to all federal, state and local government web resources and services.